{"data":{"norad_id":51754,"epoch":"2026-09-20T04:39:26.796960Z","epoch_age_seconds":78339,"freshness":"FRESH","line1":"1 51754U 22016AS  26263.19406015 -.00000369  00000+0  22600-6 0  9992","line2":"2 51754  53.1588 140.8052 0001192  81.8607 278.2531 15.34385298253272","mean_motion":15.34385298,"eccentricity":0.0001192,"inclination_deg":53.1588,"raan_deg":140.8052,"arg_perigee_deg":81.8607,"mean_anomaly_deg":278.2531,"bstar":2.26e-7,"rev_number":25327,"period_min":93.848657301199,"perigee_km":461.93150463291,"apogee_km":463.56237136373,"semimajor_km":6840.8839379983,"source":"CELESTRAK","updated_at":"2026-09-20T09:00:39.934428Z"}}